GW2591 Weather Reports


time (UTC)temp
F
wind
direction
speed
knots
gust
knots
rain 1hr
in
rain 24hr
in
rain mn
in
humidity
%
barometer
mb
20260506165317 54 329 12.2 18.2 0.00 0.22 0.22 45 1012.1
20260506164813 55 320 14.8 14.8 0.00 0.22 0.22 45 1012.0
20260506164310 54 344 4.3 13.9 0.00 0.22 0.22 41 1012.0
20260506163807 54 319 6.1 13.9 0.00 0.22 0.22 43 1012.2
20260506163302 54 355 3.5 14.8 0.00 0.22 0.22 44 1012.3
20260506162758 54 348 8.7 15.6 0.00 0.22 0.22 43 1012.3
20260506162256 53 318 3.5 16.5 0.00 0.22 0.22 42 1012.0
20260506161753 53 38 1.7 7.0 0.00 0.22 0.22 45 1012.0
20260506161250 53 2 3.5 13.0 0.00 0.22 0.22 42 1012.0
20260506160748 53 347 4.3 7.8 0.00 0.22 0.22 48 1012.1
20260506160244 54 339 3.5 12.2 0.00 0.22 0.22 46 1012.1
20260506155743 52 330 4.3 14.8 0.00 0.22 0.22 44 1012.1
20260506155239 53 347 6.1 11.3 0.00 0.22 0.22 48 1012.2
20260506153347 53 13 2.6 8.7 0.00 0.22 0.22 48 1011.6
20260506152844 53 347 4.3 11.3 0.00 0.22 0.22 48 1011.5
20260506152341 52 335 6.1 14.8 0.00 0.22 0.22 55 1011.5
20260506151839 53 322 4.3 11.3 0.00 0.22 0.22 55 1011.5
20260506151335 52 356 5.2 11.3 0.00 0.22 0.22 54 1011.6
20260506150833 52 338 2.6 9.6 0.00 0.22 0.22 55 1011.7
20260506150329 52 321 8.7 10.4 0.00 0.22 0.22 53 1011.7
20260506145826 52 343 4.3 8.7 0.00 0.22 0.22 49 1011.6
20260506145323 52 318 8.7 11.3 0.00 0.22 0.22 56 1011.4
20260506144820 51 344 4.3 13.0 0.00 0.22 0.22 58 1011.5
20260506144317 51 333 8.7 12.2 0.00 0.22 0.22 55 1011.2
20260506143815 51 335 7.0 13.9 0.00 0.22 0.22 61 1011.1
20260506143312 50 343 7.8 13.9 0.00 0.22 0.22 59 1011.2
20260506142810 51 347 9.6 13.0 0.00 0.22 0.22 61 1011.1
20260506142307 50 329 13.0 18.2 0.00 0.22 0.22 61 1011.1
20260506141806 50 326 11.3 13.0 0.00 0.22 0.22 63 1011.0
20260506141303 50 327 9.6 13.0 0.00 0.22 0.22 60 1010.8
20260506140801 50 327 4.3 11.3 0.00 0.22 0.22 66 1011.0
20260506140258 49 353 6.1 10.4 0.00 0.22 0.22 66 1010.8
20260506135755 49 350 6.1 11.3 0.00 0.22 0.22 63 1010.9
20260506135251 48 295 3.5 10.4 0.00 0.22 0.22 70 1010.7
20260506134748 48 311 5.2 13.0 0.00 0.22 0.22 70 1010.9
20260506134244 48 323 5.2 10.4 0.00 0.22 0.22 72 1011.0
20260506133741 48 311 7.0 10.4 0.00 0.22 0.22 70 1010.9
20260506133238 48 327 7.0 11.3 0.00 0.22 0.22 69 1011.1
20260506132735 48 329 7.8 9.6 0.00 0.22 0.22 70 1010.8
20260506132232 48 328 7.8 9.6 0.00 0.22 0.22 73 1011.0
20260506131730 48 288 5.2 11.3 0.00 0.22 0.22 73 1010.9
20260506131226 47 317 6.1 13.0 0.00 0.22 0.22 75 1010.5
20260506130723 47 307 7.0 14.8 0.00 0.22 0.22 73 1010.5
20260506130220 47 304 1.7 10.4 0.00 0.22 0.22 75 1010.4
20260506125718 47 305 3.5 11.3 0.00 0.22 0.22 76 1010.4
20260506125215 46 314 5.2 8.7 0.00 0.22 0.22 77 1010.2
20260506124713 46 297 5.2 8.7 0.00 0.22 0.22 79 1010.2
20260506124211 46 316 8.7 10.4 0.00 0.22 0.22 80 1010.0
20260506123708 46 305 2.6 7.0 0.00 0.22 0.22 80 1010.3
20260506123207 46 277 6.1 11.3 0.00 0.22 0.22 80 1010.3
20260506122703 45 294 2.6 9.6 0.00 0.22 0.22 81 1010.1
20260506122201 45 287 2.6 9.6 0.00 0.22 0.22 81 1010.1
20260506121658 45 287 5.2 12.2 0.00 0.22 0.22 81 1010.0
20260506121154 45 305 3.5 9.6 0.00 0.22 0.22 82 1009.9
20260506120653 45 294 2.6 11.3 0.00 0.22 0.22 83 1010.0
20260506120150 45 299 1.7 8.7 0.00 0.22 0.22 83 1009.7
20260506115648 44 304 2.6 7.0 0.00 0.22 0.22 83 1009.3
20260506115146 44 305 4.3 7.0 0.00 0.22 0.22 83 1009.3
20260506114643 44 287 1.7 6.1 0.00 0.22 0.22 84 1009.8
20260506114141 44 312 2.6 6.1 0.00 0.22 0.22 84 1009.8
20260506113639 44 280 2.6 4.3 0.00 0.22 0.22 85 1009.3
20260506113136 44 276 2.6 7.0 0.00 0.22 0.22 85 1009.3
20260506112632 44 276 5.2 7.0 0.00 0.22 0.22 85 1009.5
20260506112130 44 288 2.6 4.3 0.00 0.22 0.22 86 1008.9
20260506111627 44 276 3.5 7.0 0.00 0.22 0.22 85 1009.0
20260506111125 44 267 4.3 7.0 0.00 0.22 0.22 86 1009.3
20260506110622 44 257 4.3 7.8 0.00 0.22 0.22 86 1009.3
20260506110120 44 253 3.5 6.1 0.00 0.22 0.22 86 1009.4
20260506105616 44 244 7.0 7.8 0.00 0.22 0.22 86 1009.2
20260506105113 44 255 4.3 6.1 0.00 0.22 0.22 87 1009.1
20260506104611 44 266 3.5 5.2 0.00 0.22 0.22 87 1009.2
20260506104108 43 261 2.6 7.8 0.00 0.22 0.22 87 1008.9
20260506103605 43 276 1.7 6.1 0.00 0.22 0.22 88 1008.7
20260506103102 44 279 1.7 6.1 0.00 0.22 0.22 88 1008.8
20260506102600 43 331 6.1 8.7 0.00 0.22 0.22 88 1008.7
20260506102057 43 293 4.3 7.0 0.00 0.22 0.22 88 1008.4
20260506101554 43 292 6.1 6.1 0.00 0.22 0.22 88 1008.4
20260506101051 44 291 2.6 6.1 0.00 0.22 0.22 88 1008.2
20260506100549 43 277 0.0 3.5 0.00 0.22 0.22 88 1008.1
20260506100047 44 298 1.7 5.2 0.00 0.22 0.22 88 1007.8
20260506095546 44 254 0.9 1.7 0.00 0.22 0.22 88 1007.9
20260506095042 43 272 1.7 2.6 0.00 0.22 0.22 88 1008.3
20260506094539 43 271 2.6 3.5 0.00 0.22 0.22 88 1008.3
20260506094037 43 202 0.0 1.7 0.00 0.22 0.22 88 1007.9
20260506093535 43 195 0.0 1.7 0.00 0.22 0.22 88 1008.1
20260506093032 43 185 0.0 3.5 0.00 0.22 0.22 88 1008.0
20260506092530 43 264 0.9 2.6 0.00 0.22 0.22 88 1008.2
20260506092027 43 269 0.0 3.5 0.00 0.22 0.22 88 1008.5
20260506091525 43 262 0.0 3.5 0.00 0.22 0.22 88 1008.5
20260506091022 44 291 1.7 4.3 0.00 0.22 0.22 88 1008.5
20260506090520 44 318 1.7 7.8 0.00 0.22 0.22 88 1008.6
20260506090016 44 299 5.2 6.1 0.00 0.22 0.22 89 1008.7
20260506085513 44 296 2.6 7.0 0.02 0.22 0.22 88 1008.3
20260506085009 44 335 4.3 5.2 0.02 0.22 0.22 88 1008.2
20260506084506 44 327 4.3 6.1 0.02 0.22 0.22 88 1008.0
20260506084002 44 346 1.7 3.5 0.05 0.22 0.22 88 1008.2
20260506083500 43 320 2.6 4.3 0.05 0.22 0.22 88 1008.4
20260506082957 44 330 1.7 5.2 0.00 0.21 0.21 88 1008.5
20260506082454 44 309 0.9 4.3 0.00 0.21 0.21 88 1008.5
20260506081949 44 308 0.9 4.3 0.00 0.21 0.21 88 1008.6
20260506081448 44 346 1.7 4.3 0.00 0.21 0.21 88 1008.3
20260506080945 44 323 3.5 5.2 0.00 0.21 0.21 88 1008.4
20260506080442 44 318 5.2 6.1 0.00 0.21 0.21 89 1008.3
20260506073426 44 48 0.0 2.6 0.02 0.20 0.20 88 1007.9
20260506072923 44 331 1.7 3.5 0.02 0.20 0.20 88 1008.1
20260506072420 44 0 1.7 2.6 0.05 0.20 0.20 88 1007.9
20260506071918 44 2 1.7 3.5 0.05 0.20 0.20 88 1008.1
20260506071416 44 336 2.6 4.3 0.05 0.19 0.19 88 1008.6
20260506070912 44 314 3.5 5.2 0.07 0.19 0.19 88 1008.8
20260506070409 44 342 2.6 5.2 0.02 0.18 0.18 88 1008.8
20260506062347 45 351 3.5 7.0 0.07 0.15 0.15 89 1008.1
20260506061842 46 319 3.5 7.8 0.05 0.14 0.14 89 1008.3
20260506061339 46 312 5.2 7.0 0.05 0.14 0.14 89 1008.5
20260506060837 46 330 4.3 7.0 0.05 0.13 0.13 89 1008.6
20260506060335 45 316 3.5 6.1 0.07 0.13 0.13 89 1008.5
20260506051307 46 317 2.6 7.0 0.09 0.06 0.06 89 1008.5
20260506050805 46 323 1.7 5.2 0.07 0.05 0.05 89 1008.7
20260506050302 46 320 3.5 7.0 0.05 0.04 0.04 89 1008.7
20260506044752 46 315 0.0 3.5 0.02 0.03 0.03 89 1008.2
20260506044250 46 334 1.7 3.5 0.02 0.02 0.02 89 1008.2
20260506043747 46 332 3.5 4.3 0.00 0.02 0.02 89 1008.2
20260506043244 46 291 1.7 3.5 0.02 0.02 0.02 89 1008.4
20260506042743 46 309 1.7 3.5 0.05 0.02 0.02 89 1008.4
20260506042241 46 272 1.7 2.6 0.05 0.02 0.02 89 1008.3
20260506041739 46 305 1.7 3.5 0.05 0.01 0.01 89 1008.3
20260506041236 46 335 2.6 4.3 0.05 0.01 0.01 89 1008.4
20260506040733 46 313 1.7 3.5 0.02 0.00 0.00 89 1008.4
20260506040231 46 299 0.9 2.6 0.05 0.00 0.00 89 1008.3
20260506035727 46 322 0.0 4.3 0.09 0.93 0.93 89 1008.3
20260506035224 46 273 0.9 4.3 0.09 0.91 0.91 89 1008.4
20260506034721 46 304 1.7 4.3 0.12 0.91 0.91 89 1008.6
20260506034218 46 13 0.9 5.2 0.09 0.90 0.90 89 1008.5
20260506033715 46 323 2.6 7.0 0.05 0.89 0.89 89 1008.2
20260506033212 47 330 5.2 7.0 0.05 0.88 0.88 89 1008.3
20260506032709 46 319 0.0 4.3 0.05 0.88 0.88 89 1008.3
20260506032206 47 283 0.0 3.5 0.05 0.87 0.87 89 1008.4
20260506031703 47 250 2.6 3.5 0.07 0.87 0.87 89 1008.5
20260506031200 47 235 1.7 2.6 0.07 0.87 0.87 89 1008.5
20260506030658 47 86 0.9 1.7 0.07 0.86 0.86 89 1008.6
20260506030155 47 239 0.9 1.7 0.14 0.85 0.85 89 1008.6
20260506025652 47 118 0.0 1.7 0.12 0.84 0.84 89 1008.5
20260506025148 47 189 0.0 1.7 0.12 0.83 0.83 89 1008.6
20260506024646 47 224 0.0 0.9 0.09 0.82 0.82 89 1008.5
20260506024142 47 130 0.0 1.7 0.14 0.81 0.81 89 1008.5
20260506023638 47 160 2.6 3.5 0.17 0.80 0.80 89 1008.5
20260506023136 47 170 1.7 2.6 0.17 0.79 0.79 89 1008.7
20260506022633 47 194 0.0 2.6 0.12 0.77 0.77 89 1008.8
20260506022130 47 184 1.7 2.6 0.12 0.76 0.76 89 1008.9
20260506021628 47 214 0.9 2.6 0.12 0.75 0.75 89 1008.9
20260506021125 47 134 0.0 1.7 0.12 0.74 0.74 89 1008.4
20260506020622 47 224 0.0 4.3 0.09 0.72 0.72 89 1008.7
20260506020120 48 255 2.6 3.5 0.09 0.72 0.72 89 1008.6
20260506015617 48 213 1.7 3.5 0.09 0.71 0.71 89 1008.5
20260506015114 47 345 0.0 4.3 0.12 0.70 0.70 89 1008.6
20260506014612 47 271 2.6 4.3 0.07 0.69 0.69 89 1008.7
20260506014106 47 258 0.9 3.5 0.07 0.68 0.68 89 1008.6
20260506013605 47 0 0.0 1.7 0.07 0.68 0.68 89 1008.4
20260506013102 47 336 2.6 3.5 0.07 0.67 0.67 89 1008.4
20260506012558 47 329 1.7 2.6 0.12 0.67 0.67 89 1008.3
20260506012055 47 19 0.0 1.7 0.12 0.66 0.66 89 1008.1
20260506011553 48 319 2.6 3.5 0.09 0.65 0.65 89 1008.3
20260506011048 48 212 0.0 0.9 0.09 0.64 0.64 89 1008.2
20260506010542 47 15 0.9 1.7 0.09 0.63 0.63 89 1008.2
20260506010038 48 40 0.0 1.7 0.09 0.62 0.62 89 1007.9
20260506005535 48 354 0.9 2.6 0.07 0.61 0.61 89 1008.1
20260506005031 47 331 0.0 2.6 0.05 0.61 0.61 89 1008.2
20260506004529 47 347 0.0 1.7 0.07 0.60 0.60 89 1008.0
20260506004025 47 65 0.0 1.7 0.07 0.59 0.59 88 1007.9
20260506003522 47 359 1.7 3.5 0.09 0.59 0.59 88 1007.7
20260506003018 48 1 0.9 2.6 0.07 0.58 0.58 89 1007.9
20260506002514 48 337 1.7 3.5 0.05 0.57 0.57 88 1007.9
20260506002010 48 21 1.7 2.6 0.02 0.57 0.57 89 1007.8
20260506001507 48 15 0.9 2.6 0.02 0.57 0.57 89 1008.0
20260506001004 48 48 0.0 1.7 0.05 0.56 0.56 89 1007.9
20260506000501 48 32 0.0 1.7 0.05 0.56 0.56 88 1007.9
20260505235958 48 52 0.0 1.7 0.05 0.56 0.56 88 1007.9
20260505235456 48 14 0.0 2.6 0.07 0.55 0.55 88 1007.8
20260505234953 48 350 2.6 3.5 0.05 0.54 0.54 88 1008.1
20260505234450 48 317 2.6 4.3 0.05 0.54 0.54 88 1008.1
20260505233947 48 327 0.0 3.5 0.05 0.54 0.54 88 1008.1
20260505233444 48 320 3.5 4.3 0.05 0.53 0.53 88 1008.1
20260505232942 48 310 1.7 4.3 0.05 0.53 0.53 88 1008.3
20260505232440 48 295 1.7 5.2 0.05 0.52 0.52 88 1008.1
20260505231937 48 331 2.6 6.1 0.05 0.52 0.52 88 1007.9
20260505231434 48 318 3.5 7.8 0.05 0.52 0.52 89 1008.0
20260505230932 49 314 7.8 7.8 0.05 0.51 0.51 89 1007.8
20260505230429 49 322 7.0 9.6 0.05 0.51 0.51 89 1007.7
20260505225925 49 331 3.5 6.1 0.05 0.50 0.50 89 1007.5
20260505225423 49 15 2.6 7.8 0.07 0.50 0.50 89 1007.5
20260505224918 49 347 2.6 8.7 0.09 0.50 0.50 89 1007.6
20260505224415 48 7 2.6 7.8 0.07 0.49 0.49 89 1007.6
20260505223912 49 332 6.1 7.8 0.05 0.48 0.48 89 1007.7
20260505223409 49 8 1.7 7.8 0.05 0.47 0.47 89 1007.8
20260505222906 49 359 1.7 4.3 0.07 0.47 0.47 88 1007.6
20260505222402 49 40 0.0 5.2 0.07 0.47 0.47 88 1007.5
20260505221858 49 5 0.9 3.5 0.05 0.46 0.46 88 1007.4
20260505221355 49 357 1.7 4.3 0.02 0.45 0.45 88 1007.6
20260505220853 49 26 0.9 3.5 0.02 0.45 0.45 88 1007.6
20260505220350 49 29 3.5 5.2 0.00 0.45 0.45 88 1007.3
20260505215847 49 4 2.6 3.5 0.02 0.45 0.45 88 1007.5
20260505215345 49 357 3.5 6.1 0.05 0.45 0.45 88 1007.5
20260505214843 49 3 2.6 6.1 0.02 0.44 0.44 88 1007.5
20260505214340 49 2 1.7 7.0 0.02 0.44 0.44 88 1007.6
20260505213837 50 328 7.0 8.7 0.07 0.43 0.43 88 1007.6
20260505213335 50 310 0.9 2.6 0.12 0.43 0.43 89 1007.6
20260505212831 50 280 2.6 4.3 0.12 0.42 0.42 88 1007.6
20260505212328 50 334 2.6 7.0 0.09 0.41 0.41 88 1007.6
20260505211824 50 313 3.5 6.1 0.12 0.40 0.40 88 1007.6
20260505211322 50 337 4.3 9.6 0.14 0.39 0.39 88 1007.4
20260505210818 50 307 4.3 6.1 0.21 0.38 0.38 89 1007.3
20260505210315 50 294 2.6 7.8 0.19 0.36 0.36 88 1007.3
20260505205812 50 321 4.3 7.0 0.17 0.35 0.35 88 1007.4
20260505205310 50 311 1.7 5.2 0.17 0.33 0.33 88 1007.2
20260505204807 50 311 2.6 7.0 0.19 0.32 0.32 87 1007.3
20260505204305 50 310 4.3 7.0 0.19 0.30 0.30 87 1007.1
20260505203802 50 13 2.6 7.0 0.17 0.28 0.28 87 1007.4
20260505203259 50 315 3.5 6.1 0.12 0.27 0.27 87 1007.3
20260505202754 50 313 4.3 9.6 0.07 0.26 0.26 86 1007.2
20260505202251 50 303 2.6 10.4 0.02 0.24 0.24 86 1007.1
20260505201747 50 309 4.3 8.7 0.07 0.24 0.24 86 1007.1
20260505201245 50 324 6.1 9.6 0.07 0.24 0.24 87 1007.2
20260505200743 51 333 9.6 13.0 0.05 0.23 0.23 86 1007.1
20260505200240 51 311 7.8 8.7 0.05 0.22 0.22 86 1006.9
20260505195735 51 309 1.7 13.0 0.05 0.22 0.22 86 1007.3
20260505195233 51 313 2.6 7.0 0.05 0.22 0.22 87 1007.4
20260505194730 51 313 4.3 9.6 0.02 0.21 0.21 86 1007.6
20260505194226 51 287 5.2 10.4 0.05 0.20 0.20 87 1007.7
20260505193722 51 306 2.6 8.7 0.09 0.20 0.20 87 1007.7
20260505193220 52 298 4.3 9.6 0.09 0.20 0.20 87 1007.8
20260505192718 52 306 3.5 7.0 0.07 0.18 0.18 87 1007.9
20260505192215 52 278 3.5 7.8 0.09 0.18 0.18 87 1008.1
20260505191714 52 287 2.6 7.0 0.09 0.17 0.17 87 1008.0
20260505191212 52 269 4.3 9.6 0.09 0.16 0.16 86 1008.1
20260505190708 52 285 3.5 8.7 0.09 0.15 0.15 86 1007.9
20260505190207 52 272 3.5 7.8 0.07 0.14 0.14 86 1007.8
20260505185704 52 281 2.6 6.1 0.12 0.14 0.14 85 1007.7
20260505185201 52 276 5.2 7.0 0.12 0.13 0.13 85 1007.6
20260505184657 52 266 7.0 7.0 0.07 0.12 0.12 83 1007.9
20260505184154 53 281 4.3 7.8 0.02 0.11 0.11 84 1007.7
20260505183651 53 286 5.2 8.7 0.02 0.11 0.11 83 1007.4
20260505183149 53 275 5.2 7.8 0.00 0.10 0.10 82 1007.4
20260505182645 53 267 4.3 7.8 0.02 0.10 0.10 81 1007.3
20260505182142 53 257 4.3 8.7 0.05 0.10 0.10 80 1007.5
20260505181638 53 278 2.6 8.7 0.02 0.10 0.10 81 1007.4
20260505181136 53 242 6.1 8.7 0.02 0.09 0.09 78 1007.2
20260505180632 53 256 4.3 8.7 0.02 0.09 0.09 80 1007.4
20260505180130 53 240 3.5 7.8 0.05 0.09 0.09 79 1007.5
20260505175625 53 226 3.5 6.1 0.09 0.09 0.09 81 1007.4
20260505175121 53 220 1.7 6.1 0.07 0.08 0.08 80 1007.2
20260505174613 54 253 7.8 7.8 0.05 0.07 0.07 80 1007.2
20260505174109 54 274 7.0 10.4 0.09 0.07 0.07 81 1007.6
20260505173606 55 265 5.2 10.4 0.07 0.06 0.06 83 1007.5
20260505173102 55 277 4.3 9.6 0.07 0.05 0.05 82 1007.5
20260505172600 55 248 7.0 8.7 0.07 0.04 0.04 82 1007.6
20260505172057 55 278 7.8 9.6 0.09 0.04 0.04 82 1007.5
20260505171556 56 283 7.8 9.6 0.12 0.03 0.03 81 1007.3
20260505171054 56 254 7.0 8.7 0.09 0.02 0.02 81 1007.4
20260505170551 57 302 5.2 11.3 0.02 0.00 0.00 79 1007.5
20260505170048 57 272 6.1 13.0 0.02 0.00 0.00 79 1007.7
20260505165543 58 266 5.2 14.8 0.00 0.00 0.00 78 1007.4